Wind_Speed
6 5 4 1 3 5 5 6 7 7 4 3 4 5 4 4 4 5 7 7 7 6 6 4 5 8 7 10 11 11 12 14 14 17 18 18 17 18 19 17 16 14 14
6 5 4 2 4 6 6 6 5 3 3 4 5 7 9 8 8 7 7 7 9 7 7 5 5 6 7 7 8 8 10 12 13 15 16 18 17 18 20 17 16 14 14
7 8 7 6 5 5 4 4 3 2 2 4 4 6 6 3 3 8 5 5 10 4 7 6 5 6 7 7 6 5 7 9 10 13 14 15 15 15 19 17 16 15 13
8 7 6 5 5 5 3 3 3 3 2 3 3 3 3 1 0 1 4 6 5 9 9 8 7 4 8 7 7 6 6 7 8 9 11 13 13 12 15 16 15 14 13
6 6 4 4 4 4 4 4 3 4 5 6 5 5 4 3 2 3 4 5 4 7 8 6 10 5 6 9 6 6 5 6 5 8 9 9 9 9 12 13 13 12 12
6 5 5 3 3 3 5 5 5 5 6 6 7 8 9 9 7 6 6 4 5 9 11 11 12 11 9 10 7 4 7 7 6 1 4 5 5 4 7 9 10 10 10
4 4 4 3 3 3 4 5 5 5 6 6 5 6 8 8 9 11 11 10 9 9 15 11 11 10 12 12 15 10 8 9 9 7 5 4 3 2 2 4 6 7 8
5 5 4 3 3 3 5 4 5 7 6 6 6 7 6 6 5 7 8 9 9 9 12 10 14 14 12 13 15 15 14 12 9 8 8 6 6 5 2 2 2 4 5
6 6 5 4 4 6 5 4 6 9 9 7 7 8 8 7 5 6 7 9 10 9 11 7 14 13 16 17 16 16 16 16 12 8 8 7 8 6 4 4 3 2 3
9 8 8 6 6 8 8 6 6 8 11 10 9 9 9 7 5 5 7 9 10 10 13 18 15 14 15 17 18 18 18 17 15 13 10 10 10 7 5 6 5 3 2
16 14 10 7 8 9 10 9 7 9 9 12 12 12 11 11 8 6 5 8 10 12 13 13 14 17 17 16 18 20 19 19 18 16 15 14 12 11 7 9 8 6 4
15 14 14 12 10 9 11 11 11 12 9 9 11 13 13 12 8 8 8 9 9 10 11 14 15 15 19 18 20 22 22 21 20 20 20 18 16 13 9 9 10 8 7
17 16 14 14 14 10 13 13 12 13 10 13 12 9 13 12 13 9 8 10 12 11 11 11 14 16 18 20 23 23 26 24 23 22 22 14 10 14 12 11 12 11 12
18 18 18 15 16 15 14 16 16 17 9 7 10 12 14 13 9 5 9 7 13 15 15 13 12 14 17 21 20 25 24 25 24 21 25 20 15 18 14 15 13 14 15
20 18 23 21 16 16 14 13 18 11 4 10 9 7 9 6 7 3 2 5 11 16 16 16 15 16 17 21 24 23 25 25 27 22 21 23 19 18 18 17 16 15 18
21 22 22 20 17 15 12 12 12 8 3 4 6 4 6 4 3 3 3 8 8 9 14 17 13 14 21 15 29 27 24 21 22 24 25 25 24 22 19 20 17 18 18
23 23 22 21 19 19 13 12 10 7 7 4 4 5 5 2 5 4 5 5 8 5 8 13 20 20 24 23 23 23 25 22 18 13 16 27 27 26 23 17 19 21 16
25 21 23 21 24 24 19 21 16 11 6 5 3 4 4 5 5 6 8 9 9 9 9 10 16 14 15 11 19 25 23 21 21 16 15 20 23 24 24 25 24 19 18
25 23 22 23 21 24 26 29 17 12 5 5 6 7 7 6 7 10 11 12 12 12 15 15 16 16 17 14 13 16 18 17 23 20 19 21 20 19 17 20 21 18 18
23 24 23 26 25 24 27 26 9 11 8 4 2 3 7 7 8 10 15 15 13 15 15 14 15 16 15 15 22 20 18 19 18 21 23 23 22 17 16 18 18 18 17
22 24 26 27 26 26 32 16 10 16 11 7 1 2 6 6 10 13 13 13 12 15 13 15 14 14 18 20 16 24 17 18 18 22 24 20 20 17 20 20 20 20 18
24 26 26 24 24 21 27 7 6 11 10 4 2 2 6 7 5 6 10 11 10 10 13 15 14 16 17 22 16 11 15 18 18 21 23 21 20 20 17 24 24 24 24
23 25 25 22 22 18 22 4 9 8 6 3 0 3 9 11 7 4 5 5 7 8 12 13 14 17 17 16 16 18 16 19 19 22 24 22 21 23 20 19 24 28 31
26 25 27 23 19 15 14 8 6 5 5 3 5 7 10 9 5 4 4 3 5 8 10 13 14 16 17 19 17 18 20 21 20 22 21 25 25 26 23 21 22 26 29
23 25 24 19 16 13 12 10 9 6 3 4 5 7 11 10 7 8 6 6 7 10 11 11 11 12 15 17 19 19 17 17 18 24 22 21 22 22 23 23 23 23 27
23 22 22 17 11 7 6 5 5 5 5 7 9 9 8 8 7 7 5 7 11 10 9 10 10 10 12 15 14 17 16 12 14 16 22 21 20 18 20 20 21 22 24
Wind_Direction
350 331 312 301 226 227 225 231 242 261 268 252 275 290 276 265 240 191 179 184 199 192 161 168 159 131 123 115 108 95 89 92 91 90 94 93 92 90 84 79 81 77 78
353 322 315 304 252 241 250 253 251 251 216 226 252 260 267 281 275 239 220 209 188 196 197 177 182 159 147 135 119 106 100 92 90 87 89 93 89 89 86 81 80 77 80
344 351 342 339 317 286 253 239 254 249 243 232 234 233 241 243 322 230 220 239 224 214 238 206 199 186 170 168 149 123 107 101 95 94 95 93 88 85 87 82 79 76 75
346 351 342 327 319 287 268 263 254 239 220 224 202 185 176 111 98 155 237 267 260 228 216 220 220 216 190 179 182 161 131 112 109 107 103 102 98 89 85 84 78 78 74
328 332 322 301 286 277 253 242 232 235 235 234 235 231 224 237 271 271 293 252 243 237 224 199 217 219 180 189 185 190 166 148 159 120 112 109 104 97 89 81 77 69 72
343 323 313 302 291 282 272 254 246 245 255 254 253 249 245 243 246 252 272 277 260 259 234 236 207 212 201 186 196 201 191 183 178 123 134 128 121 102 88 86 76 71 66
345 333 315 302 319 318 295 270 270 263 267 276 279 285 275 265 254 251 254 259 257 257 226 227 209 210 212 196 177 177 227 198 186 184 202 178 198 226 66 62 59 61 64
329 336 300 290 294 300 303 294 278 268 256 268 269 270 272 271 264 252 243 242 236 214 211 220 216 217 214 218 202 190 202 206 201 191 201 203 234 241 267 317 13 26 35
333 325 303 301 287 284 282 282 281 274 269 258 256 263 274 279 266 256 247 241 236 224 215 206 216 224 222 219 215 212 212 208 209 214 217 218 242 249 262 279 299 337 351
350 334 320 321 310 294 288 282 281 281 276 267 262 257 261 257 259 246 236 225 235 229 228 234 235 244 230 227 226 224 220 224 217 221 229 232 236 238 256 281 291 300 320
345 332 314 324 310 297 291 286 283 279 268 266 266 262 256 258 262 267 253 246 230 225 224 228 233 237 235 232 236 240 233 233 229 229 223 232 239 237 248 273 276 290 313
4 344 331 309 295 303 290 277 278 289 263 264 269 265 261 257 243 252 252 255 254 255 241 230 233 243 240 241 246 245 242 234 235 232 237 227 236 252 247 264 271 270 268
7 0 340 328 303 291 283 280 272 275 268 265 306 250 260 248 236 243 252 253 260 262 260 254 246 245 243 249 254 249 244 240 236 236 239 229 199 237 252 259 271 272 270
356 353 350 332 323 289 281 296 298 283 273 235 272 261 274 294 326 253 254 260 251 258 262 260 257 256 253 257 261 268 250 237 235 241 242 243 242 231 250 260 269 276 286
3 353 352 350 332 304 292 296 312 305 295 236 218 193 254 257 287 291 273 269 255 257 258 257 266 256 260 260 254 257 260 236 233 236 242 249 242 242 247 258 265 276 276
355 357 354 346 352 332 290 283 295 321 315 211 197 204 218 195 256 280 292 286 303 267 259 255 260 271 272 273 251 237 241 243 226 228 230 237 245 249 252 257 263 270 277
348 350 349 347 339 332 305 266 262 266 234 230 202 189 229 294 281 287 279 281 292 294 257 254 256 262 276 287 235 228 237 243 230 221 238 243 245 250 252 259 260 265 271
345 349 347 350 341 336 308 302 237 231 230 242 239 221 245 268 297 291 291 288 284 280 269 257 257 265 248 281 241 235 239 232 238 234 232 241 245 255 253 255 263 251 260
346 344 343 348 339 334 326 322 290 216 206 277 278 242 255 268 289 284 290 293 288 277 267 262 262 261 259 269 245 236 243 239 246 240 240 247 239 247 242 246 241 249 256
348 345 340 343 341 334 330 327 300 216 193 195 172 314 277 218 290 295 299 298 293 281 274 267 261 261 259 257 258 248 246 251 239 232 241 242 236 240 239 234 239 248 263
352 346 346 341 343 336 333 299 272 215 183 174 156 50 347 317 304 302 298 296 288 277 269 267 261 252 252 254 280 249 231 245 248 237 239 242 238 237 238 236 239 245 256
349 351 349 351 343 336 339 255 195 179 151 137 100 50 327 315 292 291 299 294 281 282 282 278 269 261 251 262 258 290 231 242 241 244 239 235 246 254 250 243 245 244 248
348 353 353 354 345 344 345 76 127 142 107 92 89 323 329 337 321 287 294 310 311 298 287 281 273 264 258 256 259 254 256 246 239 240 243 244 246 253 254 252 246 247 251
347 353 354 354 345 348 355 24 59 122 131 80 298 327 318 327 315 316 320 333 321 313 301 284 271 260 257 252 254 249 245 247 241 236 242 245 248 253 259 261 257 250 249
344 344 349 346 351 1 23 33 21 46 111 235 292 314 327 326 352 350 324 325 334 320 310 297 283 270 257 254 250 251 247 245 242 232 235 242 249 256 256 256 263 257 255
335 338 336 340 346 355 359 12 27 16 354 334 325 329 339 332 346 345 346 357 359 347 337 326 321 296 273 265 261 249 231 234 230 223 230 242 247 247 250 257 259 260 264
Height
5910 5910 5910 5911 5912 5913 5914 5914 5914 5915 5916 5916 5918 5918 5919 5919 5919 5920 5920 5921 5922 5923 5923 5925 5926 5925 5927 5926 5925 5925 5924 5923 5924 5922 5921 5921 5922 5920 5920 5920 5919 5920 5920
5910 5910 5911 5911 5912 5913 5913 5914 5914 5915 5915 5916 5917 5918 5920 5921 5921 5921 5922 5922 5922 5923 5925 5926 5928 5927 5928 5929 5928 5927 5927 5926 5926 5925 5924 5924 5925 5924 5922 5923 5923 5923 5922
5912 5912 5912 5912 5912 5913 5913 5914 5915 5915 5915 5915 5916 5916 5917 5920 5920 5921 5922 5923 5923 5924 5925 5927 5928 5929 5928 5929 5930 5930 5929 5929 5928 5928 5928 5928 5929 5928 5925 5925 5925 5925 5925
5912 5911 5911 5911 5911 5912 5912 5914 5914 5915 5915 5915 5915 5916 5916 5918 5919 5920 5922 5922 5924 5925 5926 5927 5929 5930 5929 5930 5931 5931 5931 5931 5930 5930 5930 5929 5930 5931 5929 5928 5927 5928 5927
5911 5911 5910 5910 5910 5912 5912 5913 5913 5914 5914 5914 5914 5916 5916 5917 5918 5920 5921 5922 5923 5924 5925 5926 5927 5929 5929 5931 5932 5932 5932 5931 5930 5925 5930 5931 5932 5933 5932 5930 5929 5930 5930
5911 5911 5910 5910 5911 5911 5913 5913 5912 5912 5913 5914 5914 5915 5916 5916 5917 5919 5920 5920 5922 5923 5924 5924 5925 5927 5929 5930 5932 5933 5932 5932 5931 5930 5932 5933 5934 5935 5934 5932 5931 5930 5931
5910 5911 5911 5911 5911 5912 5913 5912 5913 5912 5913 5913 5914 5914 5914 5915 5915 5917 5918 5918 5919 5920 5922 5924 5924 5925 5927 5928 5929 5931 5932 5932 5931 5932 5933 5934 5935 5935 5936 5935 5934 5933 5932
5911 5911 5911 5910 5910 5911 5912 5913 5913 5913 5912 5912 5912 5913 5913 5914 5915 5915 5915 5915 5916 5917 5920 5922 5923 5924 5925 5926 5928 5928 5929 5931 5932 5932 5933 5934 5936 5935 5936 5936 5935 5935 5934
5913 5912 5911 5910 5910 5910 5910 5910 5910 5911 5911 5910 5911 5911 5912 5913 5913 5914 5914 5914 5916 5917 5918 5920 5921 5922 5924 5925 5925 5926 5926 5929 5931 5933 5933 5934 5935 5936 5936 5936 5936 5935 5935
5912 5912 5912 5910 5909 5909 5909 5908 5908 5908 5909 5910 5910 5910 5911 5911 5911 5912 5912 5913 5913 5915 5916 5917 5919 5921 5922 5923 5924 5925 5925 5927 5929 5930 5931 5933 5934 5935 5936 5937 5937 5936 5934
5912 5911 5909 5908 5907 5908 5907 5907 5906 5906 5907 5908 5909 5910 5910 5910 5910 5910 5911 5912 5911 5912 5914 5915 5918 5918 5920 5921 5921 5921 5923 5926 5928 5929 5929 5930 5932 5933 5934 5935 5935 5935 5934
5913 5910 5908 5907 5907 5906 5905 5904 5903 5904 5906 5906 5906 5908 5908 5908 5907 5907 5908 5909 5910 5911 5912 5913 5914 5915 5916 5917 5918 5918 5920 5922 5925 5926 5925 5927 5930 5933 5933 5932 5933 5933 5933
5912 5911 5910 5907 5906 5904 5902 5903 5902 5902 5902 5904 5905 5905 5903 5902 5902 5903 5905 5906 5906 5907 5908 5911 5914 5914 5915 5917 5918 5917 5918 5920 5922 5923 5924 5925 5927 5930 5932 5931 5931 5932 5932
5914 5910 5908 5906 5905 5902 5901 5901 5901 5896 5898 5899 5900 5899 5900 5900 5902 5900 5898 5903 5904 5905 5905 5909 5910 5912 5913 5915 5917 5917 5917 5917 5919 5919 5921 5923 5925 5927 5929 5930 5929 5930 5930
5914 5910 5907 5903 5904 5900 5901 5902 5900 5897 5899 5896 5895 5896 5898 5899 5900 5902 5900 5901 5901 5901 5903 5905 5907 5909 5909 5909 5911 5912 5914 5913 5915 5916 5918 5920 5923 5924 5925 5927 5926 5928 5928
5912 5908 5905 5903 5903 5900 5900 5900 5898 5898 5896 5894 5894 5894 5896 5896 5898 5899 5898 5898 5898 5899 5900 5903 5904 5905 5904 5903 5904 5908 5910 5909 5908 5910 5912 5915 5919 5921 5921 5922 5924 5925 5925
5911 5907 5905 5904 5901 5900 5897 5896 5896 5896 5895 5893 5895 5895 5895 5895 5897 5896 5895 5895 5893 5895 5897 5898 5899 5898 5898 5900 5899 5901 5904 5905 5904 5907 5908 5910 5913 5917 5918 5917 5920 5923 5922
5910 5907 5904 5904 5898 5895 5891 5882 5885 5891 5890 5891 5892 5894 5892 5892 5894 5894 5894 5892 5890 5890 5893 5895 5895 5894 5894 5896 5896 5896 5898 5900 5901 5902 5905 5907 5907 5910 5913 5913 5915 5918 5918
5909 5906 5902 5900 5899 5894 5889 5884 5882 5887 5889 5889 5892 5891 5890 5890 5890 5890 5891 5891 5888 5887 5887 5890 5890 5890 5890 5892 5891 5891 5895 5896 5897 5897 5898 5902 5905 5907 5908 5910 5911 5914 5915
5910 5905 5900 5895 5893 5890 5886 5881 5881 5884 5888 5892 5893 5893 5891 5889 5887 5886 5886 5886 5884 5883 5884 5884 5884 5884 5884 5883 5883 5888 5892 5893 5892 5893 5894 5896 5899 5902 5903 5905 5907 5909 5912
5908 5903 5898 5893 5891 5886 5881 5879 5879 5880 5886 5889 5890 5890 5890 5887 5885 5881 5882 5881 5880 5878 5879 5880 5879 5880 5879 5878 5879 5879 5884 5886 5887 5889 5890 5891 5895 5898 5900 5901 5903 5905 5907
5905 5901 5898 5894 5891 5885 5878 5874 5876 5879 5884 5886 5887 5887 5887 5884 5882 5881 5878 5878 5878 5875 5874 5874 5874 5876 5876 5872 5875 5874 5876 5880 5883 5885 5887 5889 5891 5894 5896 5898 5899 5899 5899
5906 5901 5897 5893 5889 5884 5881 5878 5878 5879 5882 5883 5885 5885 5884 5880 5879 5879 5878 5875 5872 5872 5871 5870 5869 5869 5871 5870 5871 5872 5872 5875 5880 5880 5881 5884 5886 5889 5891 5893 5893 5891 5891
5903 5900 5897 5893 5890 5886 5882 5880 5880 5880 5882 5883 5884 5883 5881 5880 5878 5875 5874 5873 5871 5869 5868 5866 5866 5865 5866 5866 5867 5868 5869 5871 5871 5874 5876 5879 5882 5884 5885 5885 5883 5885 5884
5903 5899 5897 5894 5891 5888 5883 5882 5882 5882 5883 5884 5884 5882 5879 5877 5874 5872 5872 5871 5869 5866 5863 5861 5860 5860 5861 5861 5862 5863 5865 5866 5866 5869 5873 5875 5876 5878 5879 5878 5880 5879 5879
5902 5900 5895 5893 5890 5889 5886 5885 5884 5883 5882 5882 5881 5879 5879 5876 5873 5872 5869 5867 5865 5863 5860 5857 5856 5855 5855 5856 5856 5857 5859 5860 5862 5864 5867 5869 5871 5873 5873 5874 5873 5873 5872